| time (UTC) | temp F | wind direction | speed MPH | gust MPH | rain 1hr in | rain 24hr in | rain mn in | humidity % | barometer mb |
| 20260902201553 | 64 | 227 | 0.0 | 0.0 | 0.00 | 0.00 | 0.00 | 70 | 1022.0 |
| 20260902200105 | 66 | 226 | 0.0 | 0.0 | 0.00 | 0.00 | 0.00 | 66 | 1022.0 |
| 20260902194610 | 68 | 260 | 0.0 | 0.0 | 0.00 | 0.00 | 0.00 | 63 | 1021.9 |
| 20260902193050 | 70 | 260 | 0.0 | 1.0 | 0.00 | 0.00 | 0.00 | 61 | 1021.8 |
| 20260902191545 | 70 | 239 | 0.0 | 0.0 | 0.00 | 0.00 | 0.00 | 59 | 1021.7 |
| 20260902190057 | 71 | 252 | 0.0 | 0.0 | 0.00 | 0.00 | 0.00 | 56 | 1021.4 |
| 20260902184619 | 72 | 252 | 0.0 | 0.0 | 0.00 | 0.00 | 0.00 | 55 | 1021.3 |
| 20260902183118 | 73 | 252 | 0.0 | 0.0 | 0.00 | 0.00 | 0.00 | 54 | 1020.9 |
| 20260902181558 | 75 | 252 | 0.0 | 2.0 | 0.00 | 0.00 | 0.00 | 51 | 1020.9 |
| 20260902174607 | 78 | 231 | 0.0 | 3.0 | 0.00 | 0.00 | 0.00 | 48 | 1020.7 |
| 20260902173102 | 80 | 357 | 0.0 | 1.0 | 0.00 | 0.00 | 0.00 | 49 | 1020.7 |
| 20260902171605 | 82 | 66 | 0.0 | 1.0 | 0.00 | 0.00 | 0.00 | 45 | 1020.6 |
| 20260902170059 | 84 | 245 | 0.0 | 1.0 | 0.00 | 0.00 | 0.00 | 40 | 1020.5 |
| 20260902164556 | 83 | 251 | 0.0 | 6.0 | 0.00 | 0.00 | 0.00 | 42 | 1020.6 |
| 20260902163105 | 84 | 263 | 2.0 | 5.0 | 0.00 | 0.00 | 0.00 | 42 | 1020.5 |
| 20260902161544 | 84 | 312 | 0.0 | 2.0 | 0.00 | 0.00 | 0.00 | 42 | 1020.4 |
| 20260902160100 | 84 | 281 | 2.0 | 8.0 | 0.00 | 0.00 | 0.00 | 42 | 1020.5 |
| 20260902154556 | 84 | 251 | 1.0 | 6.0 | 0.00 | 0.00 | 0.00 | 43 | 1020.5 |
| 20260902153107 | 85 | 327 | 0.0 | 4.0 | 0.00 | 0.00 | 0.00 | 44 | 1020.5 |
| 20260902151606 | 84 | 307 | 0.0 | 2.0 | 0.00 | 0.00 | 0.00 | 43 | 1020.5 |
| 20260902144553 | 83 | 234 | 1.0 | 3.0 | 0.00 | 0.00 | 0.00 | 46 | 1020.7 |
| 20260902143058 | 82 | 281 | 1.0 | 5.0 | 0.00 | 0.00 | 0.00 | 45 | 1020.8 |
| 20260902141545 | 82 | 27 | 1.0 | 4.0 | 0.00 | 0.00 | 0.00 | 43 | 1020.8 |
| 20260902140104 | 83 | 240 | 1.0 | 4.0 | 0.00 | 0.00 | 0.00 | 45 | 1020.9 |
| 20260902134606 | 83 | 216 | 2.0 | 6.0 | 0.00 | 0.00 | 0.00 | 44 | 1020.9 |
| 20260902133101 | 84 | 164 | 3.0 | 7.0 | 0.00 | 0.00 | 0.00 | 42 | 1020.7 |
| 20260902131602 | 83 | 256 | 3.0 | 7.0 | 0.00 | 0.00 | 0.00 | 42 | 1020.7 |
| 20260902130105 | 82 | 248 | 2.0 | 6.0 | 0.00 | 0.00 | 0.00 | 46 | 1020.8 |
| 20260902124559 | 83 | 60 | 0.0 | 6.0 | 0.00 | 0.00 | 0.00 | 45 | 1020.9 |
| 20260902123056 | 82 | 243 | 0.0 | 5.0 | 0.00 | 0.00 | 0.00 | 47 | 1020.9 |
| 20260902121602 | 82 | 214 | 2.0 | 5.0 | 0.00 | 0.00 | 0.00 | 49 | 1021.0 |
| 20260902120104 | 80 | 55 | 0.0 | 3.0 | 0.00 | 0.00 | 0.00 | 50 | 1021.1 |
| 20260902114551 | 81 | 324 | 0.0 | 2.0 | 0.00 | 0.00 | 0.00 | 50 | 1021.3 |
| 20260902113057 | 79 | 51 | 1.0 | 5.0 | 0.00 | 0.00 | 0.00 | 51 | 1021.5 |
| 20260902111603 | 78 | 25 | 0.0 | 3.0 | 0.00 | 0.00 | 0.00 | 52 | 1021.5 |
| 20260902110106 | 78 | 86 | 1.0 | 3.0 | 0.00 | 0.00 | 0.00 | 51 | 1021.6 |
| 20260902104554 | 78 | 58 | 0.0 | 4.0 | 0.00 | 0.00 | 0.00 | 53 | 1021.7 |
| 20260902103101 | 77 | 103 | 1.0 | 4.0 | 0.00 | 0.00 | 0.00 | 54 | 1021.6 |
| 20260902101554 | 77 | 43 | 0.0 | 3.0 | 0.00 | 0.00 | 0.00 | 55 | 1021.6 |
| 20260902100103 | 77 | 37 | 0.0 | 3.0 | 0.00 | 0.00 | 0.00 | 55 | 1021.8 |
| 20260902094545 | 75 | 70 | 0.0 | 3.0 | 0.00 | 0.00 | 0.00 | 57 | 1021.9 |
| 20260902093053 | 75 | 318 | 0.0 | 2.0 | 0.00 | 0.00 | 0.00 | 59 | 1021.8 |
| 20260902091608 | 73 | 1 | 0.0 | 3.0 | 0.00 | 0.00 | 0.00 | 61 | 1021.8 |
| 20260902090111 | 73 | 264 | 0.0 | 2.0 | 0.00 | 0.00 | 0.00 | 64 | 1021.6 |
| 20260902084553 | 72 | 138 | 0.0 | 3.0 | 0.00 | 0.00 | 0.00 | 68 | 1021.5 |
| 20260902083104 | 71 | 248 | 0.0 | 3.0 | 0.00 | 0.00 | 0.00 | 71 | 1021.5 |
| 20260902081550 | 69 | 221 | 0.0 | 2.0 | 0.00 | 0.00 | 0.00 | 74 | 1021.4 |
| 20260902080112 | 67 | 200 | 0.0 | 3.0 | 0.00 | 0.00 | 0.00 | 76 | 1021.2 |
| 20260902074545 | 65 | 244 | 0.0 | 2.0 | 0.00 | 0.00 | 0.00 | 81 | 1021.2 |
| 20260902073111 | 62 | 243 | 0.0 | 2.0 | 0.00 | 0.00 | 0.00 | 85 | 1021.3 |
| 20260902071609 | 59 | 285 | 0.0 | 3.0 | 0.00 | 0.00 | 0.00 | 90 | 1021.3 |
| 20260902070050 | 56 | 246 | 0.0 | 3.0 | 0.00 | 0.00 | 0.00 | 92 | 1021.1 |
| 20260902064547 | 56 | 238 | 0.0 | 2.0 | 0.00 | 0.00 | 0.00 | 93 | 1020.9 |
| 20260902063049 | 55 | 215 | 0.0 | 1.0 | 0.00 | 0.00 | 0.00 | 94 | 1020.9 |
| 20260902061601 | 54 | 220 | 0.0 | 1.0 | 0.00 | 0.00 | 0.00 | 95 | 1020.8 |
| 20260902060053 | 54 | 293 | 0.0 | 0.0 | 0.00 | 0.00 | 0.00 | 95 | 1020.6 |
| 20260902054548 | 54 | 226 | 0.0 | 3.0 | 0.00 | 0.00 | 0.00 | 95 | 1020.4 |
| 20260902053054 | 53 | 229 | 0.0 | 2.0 | 0.00 | 0.00 | 0.00 | 95 | 1020.0 |
| 20260902051554 | 53 | 219 | 0.0 | 2.0 | 0.00 | 0.00 | 0.00 | 94 | 1020.4 |
| 20260902050109 | 54 | 224 | 1.0 | 0.0 | 0.00 | 0.00 | 0.00 | 95 | 1020.5 |
| 20260902044554 | 54 | 111 | 0.0 | 3.0 | 0.00 | 0.00 | 0.00 | 94 | 1020.3 |
| 20260902043101 | 54 | 232 | 1.0 | 4.0 | 0.00 | 0.00 | 0.00 | 94 | 1020.3 |
| 20260902041548 | 54 | 238 | 1.0 | 5.0 | 0.00 | 0.00 | 0.00 | 94 | 1020.2 |
| 20260902040105 | 54 | 234 | 0.0 | 5.0 | 0.00 | 0.00 | 0.00 | 94 | 1020.1 |
| 20260902034545 | 54 | 188 | 1.0 | 9.0 | 0.00 | 0.00 | 0.00 | 95 | 1020.0 |
| 20260902033103 | 53 | 224 | 0.0 | 4.0 | 0.00 | 0.00 | 0.00 | 96 | 1020.1 |
| 20260902031542 | 53 | 250 | 0.0 | 1.0 | 0.00 | 0.00 | 0.00 | 95 | 1020.2 |
| 20260902030107 | 53 | 241 | 0.0 | 1.0 | 0.00 | 0.00 | 0.00 | 95 | 1020.3 |
| 20260902024603 | 53 | 233 | 0.0 | 2.0 | 0.00 | 0.00 | 0.00 | 94 | 1020.4 |
| 20260902023057 | 54 | 233 | 0.0 | 2.0 | 0.00 | 0.00 | 0.00 | 94 | 1020.3 |
| 20260902021603 | 54 | 276 | 0.0 | 1.0 | 0.00 | 0.00 | 0.00 | 94 | 1020.3 |
| 20260902020100 | 54 | 293 | 0.0 | 1.0 | 0.00 | 0.00 | 0.00 | 93 | 1020.3 |
| 20260902014549 | 55 | 236 | 0.0 | 3.0 | 0.00 | 0.00 | 0.00 | 93 | 1020.4 |
| 20260902013107 | 55 | 259 | 0.0 | 2.0 | 0.00 | 0.00 | 0.00 | 92 | 1020.2 |
| 20260902011555 | 55 | 221 | 0.0 | 3.0 | 0.00 | 0.00 | 0.00 | 92 | 1020.2 |
| 20260902010115 | 55 | 295 | 0.0 | 4.0 | 0.00 | 0.00 | 0.00 | 91 | 1020.3 |
| 20260902004556 | 55 | 285 | 0.0 | 2.0 | 0.00 | 0.00 | 0.00 | 92 | 1020.2 |
| 20260902003047 | 55 | 239 | 0.0 | 2.0 | 0.00 | 0.00 | 0.00 | 91 | 1020.3 |
| 20260902001544 | 55 | 250 | 0.0 | 2.0 | 0.00 | 0.00 | 0.00 | 91 | 1020.4 |
| 20260902000052 | 56 | 239 | 0.0 | 1.0 | 0.00 | 0.00 | 0.00 | 91 | 1020.5 |
| 20260901234600 | 56 | 277 | 0.0 | 1.0 | 0.00 | 0.00 | 0.00 | 90 | 1020.5 |
| 20260901233100 | 56 | 245 | 0.0 | 2.0 | 0.00 | 0.00 | 0.00 | 90 | 1020.5 |
| 20260901231555 | 57 | 239 | 0.0 | 1.0 | 0.00 | 0.00 | 0.00 | 89 | 1020.6 |
| 20260901230055 | 57 | 254 | 0.0 | 2.0 | 0.00 | 0.00 | 0.00 | 88 | 1020.6 |
| 20260901224604 | 57 | 317 | 0.0 | 0.0 | 0.00 | 0.00 | 0.00 | 88 | 1020.6 |
| 20260901223057 | 58 | 195 | 0.0 | 1.0 | 0.00 | 0.00 | 0.00 | 87 | 1020.5 |
| 20260901221624 | 58 | 254 | 0.0 | 0.0 | 0.00 | 0.00 | 0.00 | 85 | 1020.7 |
| 20260901220101 | 59 | 254 | 0.0 | 1.0 | 0.00 | 0.00 | 0.00 | 84 | 1020.6 |
| 20260901214556 | 60 | 195 | 0.0 | 1.0 | 0.00 | 0.00 | 0.00 | 81 | 1020.4 |
| 20260901213108 | 61 | 82 | 0.0 | 0.0 | 0.00 | 0.00 | 0.00 | 79 | 1020.2 |
| 20260901211553 | 61 | 69 | 0.0 | 0.0 | 0.00 | 0.00 | 0.00 | 78 | 1020.3 |
| 20260901210104 | 62 | 70 | 0.0 | 0.0 | 0.00 | 0.00 | 0.00 | 77 | 1020.1 |
| 20260901204550 | 63 | 69 | 0.0 | 0.0 | 0.00 | 0.00 | 0.00 | 76 | 1020.1 |
| 20260901203107 | 63 | 69 | 0.0 | 0.0 | 0.00 | 0.00 | 0.00 | 76 | 1020.2 |